SL-14 DEB

Satellite information

Favourite Embed

Satellite Type and Status

DEBRISIN ORBIT

Key statistics

Satellite SL-14 DEB at a glance.

Uptime

13943

Days in orbit

Revolutions

≈ 14.1

Per day

Orbit

LEO

Low Earth Orbit

Inclination

82.5

Latest

Satellite identification and parameters

Extended collection of information and parameters for SL-14 DEB.

Object identification

Identified? True

Debris? True

Object name: SL-14 DEB

International designator: 1987-068DM

Object number (NORAD): 39985

Object ID (CCSDS): 39985

Country: COMMONWEALTH OF INDEPENDENT STATES (CIS)

Current information (Y/N): Y

RCS size: SMALL

Orbital parameters

Period: 101.994 minutes

Inclination: 82.5167 deg

SMA: 7231.18 km

Apoapsis: 858.009 km

Periapsis: 848.082 km

RAAN: 283.3884 deg

Eccentricy: 0.00068634

Argument of periapsis: 178.3718 deg

Mean anomaly: 181.7481 deg

Mean motion: 14.11851305 rev/day

Mean motion (dot): 0.00004411 rev/day2

B* drag term: 0.0024086791 1/REarth

Two-line elements (TLE)

Creation date: Oct. 20, 2025, 2:10 a.m.

Reference frame: TEME

Reference center: EARTH

Epoch: Oct. 19, 2025, 4:31 p.m. UTC

TLE line 0: 0 SL-14 DEB

TLE line 1: 1 39985U 87068DM 25292.68836993 .00004411 00000-0 24087-2 0 9998

TLE line 2: 2 39985 82.5167 283.3884 0006863 178.3718 181.7481 14.11851305564496

Live tracking on map

Real-time ground track for satellite SL-14 DEB.

In-orbit conjunctions

A list of the most updated potential collisions computed for object SL-14 DEB.

Target Orbit TCA Probability of collision Miss distance Type
FENGYUN 1C DEB * SSO 2025-04-12 04:35:51 0.0001307787 96.0 (m) DEBRIS
CZ-6A DEB LEO 2024-12-02 22:54:47 0.000115999 567.0 (m) DEBRIS
CZ-6A DEB SSO 2024-06-30 14:38:32 0.0001220613 348.0 (m) DEBRIS

Associated space launch

Second generation soviet meteorological satellite

SL-14 DEB was lifted into orbit during the mission ‘Tsiklon-3 | Meteor-2 16’, on board a Tsiklon-3 space rocket.

The launch took place on Aug. 18, 1987, 2:27 a.m. from 32/1.

For more information about the launch, click the button.

Launch to space Tsiklon-3 | Meteor-2 16
Tsiklon-3 | Meteor-2 16

Agency: N/A

Status: Launch Successful

Launch date: Aug. 18, 1987, 2:27 a.m. UTC

Rocket: Tsiklon-3

Launch pad: 32/1

Location: Plesetsk Cosmodrome, Russian Federation

...

Latest news about this satellite

There are no fresh news available about this satellite. Check back as we update our databases every day.


Newsletter sign-up

Weekly statistics, charts and insights to help you stay on top of the space industry.